[Date Prev][Date Next][Thread Prev][Thread Next] - [Date Index][Thread Index][Author Index]

2 Line ISS Keps 2-19



ISS
1 25544U 98067A   03050.10717593  .00016406  00000-0  21595-3 0  7058
2 25544  51.6330 253.2853 0012188 220.1678 281.4112 15.58528026242586


----
Via the sarex mailing list at AMSAT.ORG courtesy of AMSAT-NA.
To unsubscribe, send "unsubscribe sarex" to Majordomo@amsat.org



AMSAT Top AMSAT Home